Weather History for CYMX - July, 2014

Change the Weather History Date:

Thursday, July 10, 2014

  Actual Average Record
Temperature  
Mean Temperature 62 °F -  
Max Temperature 71 °F 74 °F 89 °F (2005)
Min Temperature 53 °F 57 °F 48 °F (2012)
Degree Days  
Heating Degree Days 3    
Growing Degree Days 12 (Base 50)    
Moisture  
Dew Point 52 °F    
Average Humidity 70    
Maximum Humidity 94    
Minimum Humidity 43    
Precipitation  
Precipitation 0.00 in - - ()
Sea Level Pressure  
Sea Level Pressure 30.08 in    
Wind  
Wind Speed 3 mph ()    
Max Wind Speed 9 mph    
Max Gust Speed -    
Averages and records for this station are not official NWS values.
T = Trace of Precipitation, MM = Missing Value Source: Averaged Metar Reports

Daily Weather History Graph

Daily Weather History Graph

Search for Another Location

Airport or City:

Trip Planner

Search our weather history database for the weather conditions in past years. The results will help you decide how hot, cold, wet, or windy it might be!

Date:

Astronomy

Jul. 10, 2014 Rise Set
Actual Time 5:16 AM EDT 8:45 PM EDT
Civil Twilight 4:39 AM EDT 9:22 PM EDT
Nautical Twilight 3:50 AM EDT 10:11 PM EDT
Astronomical Twilight 2:46 AM EDT 11:14 PM EDT
Moon 6:52 PM EDT (7/10) 3:29 AM EDT (7/10)
Length of Visible Light 16h 43m
Length of Day
15h 28m
Waxing Gibbous, 95% of the Moon is Illuminated
Jul 10
Waxing Gibbous
Jul 12
Full
Jul 18
Last Quarter
Jul 26
New
Aug 3
First Quarter

Hourly Weather History & Observations

Time (EDT) Temp. Dew Point Humidity Pressure Visibility Wind Dir Wind Speed Gust Speed Precip Events Conditions
12:00 AM 59.0 °F 55.4 °F 88% 29.90 in 25.0 mi Variable 2.3 mph - N/A   Scattered Clouds
1:00 AM 59.0 °F 55.4 °F 88% 29.92 in 25.0 mi Variable 2.3 mph - N/A   Scattered Clouds
2:00 AM 59.0 °F 53.6 °F 82% 29.94 in 25.0 mi WSW 3.5 mph - N/A   Scattered Clouds
3:00 AM 57.2 °F 53.6 °F 88% 29.95 in 25.0 mi Calm Calm - N/A   Partly Cloudy
4:00 AM 57.2 °F 53.6 °F 88% 29.97 in 25.0 mi Variable 2.3 mph - N/A   Partly Cloudy
5:00 AM 55.4 °F 51.8 °F 88% 29.99 in 25.0 mi Variable 3.5 mph - N/A   Partly Cloudy
6:00 AM 53.6 °F 51.8 °F 94% 30.03 in 35.0 mi SW 3.5 mph - N/A   Partly Cloudy
7:00 AM 57.2 °F 51.8 °F 82% 30.06 in 45.0 mi Variable 4.6 mph - N/A   Partly Cloudy
8:00 AM 59.0 °F 51.8 °F 77% 30.08 in 45.0 mi WSW 5.8 mph - N/A   Partly Cloudy
9:00 AM 60.8 °F 51.8 °F 72% 30.09 in 45.0 mi WSW 5.8 mph - N/A   Partly Cloudy
10:00 AM 64.4 °F 51.8 °F 64% 30.10 in 45.0 mi West 9.2 mph - N/A   Partly Cloudy
11:00 AM 66.2 °F 50.0 °F 56% 30.11 in 45.0 mi West 6.9 mph - N/A   Scattered Clouds
12:00 PM 66.2 °F 50.0 °F 56% 30.12 in 45.0 mi NW 4.6 mph - N/A   Scattered Clouds
1:00 PM 68.0 °F 55.4 °F 64% 30.12 in 45.0 mi WSW 5.8 mph - N/A   Mostly Cloudy
2:00 PM 69.8 °F 50.0 °F 49% 30.13 in 45.0 mi WSW 2.3 mph - N/A   Mostly Cloudy
3:00 PM 71.6 °F 51.8 °F 50% 30.14 in 45.0 mi WSW 6.9 mph - N/A   Scattered Clouds
4:00 PM 69.8 °F 51.8 °F 53% 30.14 in 45.0 mi West 5.8 mph - N/A   Scattered Clouds
5:00 PM 71.6 °F 48.2 °F 43% 30.14 in 45.0 mi SW 8.1 mph - N/A   Partly Cloudy
6:00 PM 71.6 °F 50.0 °F 46% 30.13 in 45.0 mi WSW 4.6 mph - N/A   Partly Cloudy
7:00 PM 71.6 °F 48.2 °F 43% 30.14 in 45.0 mi West 5.8 mph - N/A   Partly Cloudy
8:00 PM 66.2 °F 50.0 °F 56% 30.15 in 45.0 mi WSW 2.3 mph - N/A   Partly Cloudy
9:00 PM 60.8 °F 51.8 °F 72% 30.16 in 25.0 mi SW 2.3 mph - N/A   Partly Cloudy
10:00 PM 53.6 °F 51.8 °F 94% 30.18 in 25.0 mi West 2.3 mph - N/A   Partly Cloudy
11:00 PM 53.6 °F 51.8 °F 94% 30.18 in 25.0 mi West 4.6 mph - N/A   Partly Cloudy